Time,TemperatureF,DewpointF,PressureIn,WindDirection,WindDirectionDegrees,WindSpeedMPH,WindSpeedGustMPH,Humidity,HourlyPrecipIn,Conditions,Clouds,dailyrainin,SolarRadiationWatts/m^2,SoftwareType,DateUTC
2013-08-04 00:02:00,83.0,50.0,29.84,ENE,75,1.0,1.0,32,-99.99,,,-99.99,0.000000,,2013-08-04 07:02:00,
2013-08-04 00:12:00,83.0,50.0,29.83,NE,34,0.0,1.0,32,-99.99,,,-99.99,0.000000,,2013-08-04 07:12:00,
2013-08-04 00:22:00,82.0,50.0,29.83,South,186,0.0,1.0,32,-99.99,,,-99.99,0.000000,,2013-08-04 07:22:00,
2013-08-04 00:32:00,83.0,50.0,29.83,South,173,1.0,2.0,32,-99.99,,,-99.99,0.000000,,2013-08-04 07:32:00,
2013-08-04 00:42:00,82.0,49.0,29.83,NNE,21,3.0,5.0,32,-99.99,,,-99.99,0.000000,,2013-08-04 07:42:00,
2013-08-04 00:52:00,81.0,50.0,29.84,NNE,14,4.0,6.0,34,-99.99,,,-99.99,0.000000,,2013-08-04 07:52:00,
2013-08-04 01:02:00,81.0,50.0,29.84,NNE,14,4.0,6.0,34,-99.99,,,-99.99,0.000000,,2013-08-04 08:02:00,
2013-08-04 01:11:00,81.0,51.0,29.83,NE,54,2.0,3.0,36,-99.99,,,-99.99,0.000000,,2013-08-04 08:11:00,
2013-08-04 01:22:00,80.0,51.0,29.83,NNE,13,1.0,2.0,36,-99.99,,,-99.99,0.000000,,2013-08-04 08:22:00,
2013-08-04 01:32:00,80.0,51.0,29.83,NE,37,2.0,2.0,37,-99.99,,,-99.99,0.000000,,2013-08-04 08:32:00,
2013-08-04 01:43:00,80.0,52.0,29.84,NE,44,1.0,2.0,38,-99.99,,,-99.99,0.000000,,2013-08-04 08:43:00,
2013-08-04 01:53:00,79.0,52.0,29.84,NE,41,1.0,2.0,38,-99.99,,,-99.99,0.000000,,2013-08-04 08:53:00,
2013-08-04 02:02:00,79.0,51.0,29.84,NE,48,2.0,3.0,38,-99.99,,,-99.99,0.000000,,2013-08-04 09:02:00,
2013-08-04 02:12:00,79.0,51.0,29.84,ENE,62,3.0,5.0,38,-99.99,,,-99.99,0.000000,,2013-08-04 09:12:00,
2013-08-04 02:22:00,79.0,51.0,29.83,ENE,57,4.0,6.0,38,-99.99,,,-99.99,0.000000,,2013-08-04 09:22:00,
2013-08-04 02:32:00,79.0,52.0,29.84,NE,44,2.0,4.0,39,-99.99,,,-99.99,0.000000,,2013-08-04 09:32:00,
2013-08-04 02:43:00,79.0,52.0,29.84,NE,44,2.0,4.0,39,-99.99,,,-99.99,0.000000,,2013-08-04 09:43:00,
2013-08-04 02:52:00,78.0,52.0,29.83,NE,54,0.0,1.0,40,-99.99,,,-99.99,0.000000,,2013-08-04 09:52:00,
2013-08-04 03:01:00,78.0,52.0,29.83,NE,54,0.0,1.0,40,-99.99,,,-99.99,0.000000,,2013-08-04 10:01:00,
2013-08-04 03:12:00,78.0,52.0,29.83,NNE,20,0.0,1.0,41,-99.99,,,-99.99,0.000000,,2013-08-04 10:12:00,
2013-08-04 03:22:00,78.0,52.0,29.83,ENE,78,1.0,3.0,41,-99.99,,,-99.99,0.000000,,2013-08-04 10:22:00,
2013-08-04 03:32:00,78.0,52.0,29.83,ENE,78,1.0,3.0,41,-99.99,,,-99.99,0.000000,,2013-08-04 10:32:00,
2013-08-04 03:42:00,77.0,52.0,29.82,NE,52,3.0,4.0,41,-99.99,,,-99.99,0.000000,,2013-08-04 10:42:00,
2013-08-04 03:53:00,77.0,52.0,29.82,NE,52,3.0,4.0,41,-99.99,,,-99.99,0.000000,,2013-08-04 10:53:00,
2013-08-04 04:00:00,77.0,52.0,29.82,ENE,57,1.0,2.0,42,-99.99,,,-99.99,0.000000,,2013-08-04 11:00:00,
2013-08-04 04:02:00,77.0,52.0,29.82,ENE,62,3.0,6.0,41,-99.99,,,-99.99,0.000000,,2013-08-04 11:02:00,
2013-08-04 04:12:00,78.0,52.0,29.82,ENE,63,2.0,3.0,40,-99.99,,,-99.99,0.000000,,2013-08-04 11:12:00,
2013-08-04 04:22:00,78.0,52.0,29.82,ENE,63,2.0,3.0,40,-99.99,,,-99.99,0.000000,,2013-08-04 11:22:00,
2013-08-04 04:32:00,77.0,52.0,29.82,ENE,57,1.0,2.0,42,-99.99,,,-99.99,0.000000,,2013-08-04 11:32:00,
2013-08-04 04:42:00,77.0,52.0,29.82,ENE,57,1.0,2.0,42,-99.99,,,-99.99,0.000000,,2013-08-04 11:42:00,
2013-08-04 04:52:00,77.0,52.0,29.82,ENE,57,1.0,2.0,42,-99.99,,,-99.99,0.000000,,2013-08-04 11:52:00,
2013-08-04 05:22:00,77.0,51.0,29.83,NNE,25,2.0,3.0,40,-99.99,,,-99.99,0.000000,,2013-08-04 12:22:00,
2013-08-04 05:32:00,76.0,51.0,29.83,South,170,0.0,2.0,42,-99.99,,,-99.99,0.000000,,2013-08-04 12:32:00,
2013-08-04 05:43:00,76.0,51.0,29.83,South,170,0.0,2.0,42,-99.99,,,-99.99,0.000000,,2013-08-04 12:43:00,
2013-08-04 05:53:00,76.0,51.0,29.83,SSW,194,3.0,5.0,41,-99.99,,,-99.99,0.000000,,2013-08-04 12:53:00,
2013-08-04 06:00:00,78.0,46.0,29.85,NNE,33,5.0,8.0,33,-99.99,,,-99.99,0.000000,,2013-08-04 13:00:00,
2013-08-04 06:02:00,77.0,51.0,29.83,SSW,212,2.0,5.0,40,-99.99,,,-99.99,0.000000,,2013-08-04 13:02:00,
2013-08-04 06:12:00,77.0,46.0,29.83,ESE,117,1.0,3.0,34,-99.99,,,-99.99,0.000000,,2013-08-04 13:12:00,
2013-08-04 06:22:00,79.0,41.0,29.84,ESE,110,4.0,12.0,26,-99.99,,,-99.99,0.000000,,2013-08-04 13:22:00,
2013-08-04 06:32:00,78.0,46.0,29.85,NNE,33,5.0,8.0,33,-99.99,,,-99.99,0.000000,,2013-08-04 13:32:00,
2013-08-04 06:43:00,78.0,46.0,29.85,NNE,33,5.0,8.0,33,-99.99,,,-99.99,0.000000,,2013-08-04 13:43:00,
2013-08-04 06:52:00,78.0,46.0,29.85,NNE,33,5.0,8.0,33,-99.99,,,-99.99,0.000000,,2013-08-04 13:52:00,
2013-08-04 07:10:00,79.0,49.0,29.87,West,270,1.0,1.0,34,-99.99,,,-99.99,150.000000,,2013-08-04 14:10:00,
2013-08-04 07:12:00,76.0,49.0,29.86,South,184,1.0,2.0,39,-99.99,,,-99.99,20.000000,,2013-08-04 14:12:00,
2013-08-04 07:22:00,76.0,49.0,29.86,SSW,209,2.0,4.0,39,-99.99,,,-99.99,50.000000,,2013-08-04 14:22:00,
2013-08-04 07:32:00,77.0,49.0,29.87,ENE,72,1.0,3.0,37,-99.99,,,-99.99,130.000000,,2013-08-04 14:32:00,
2013-08-04 07:43:00,79.0,49.0,29.87,West,270,1.0,1.0,34,-99.99,,,-99.99,150.000000,,2013-08-04 14:43:00,
2013-08-04 07:53:00,79.0,49.0,29.87,West,270,1.0,1.0,34,-99.99,,,-99.99,150.000000,,2013-08-04 14:53:00,
2013-08-04 08:02:00,79.0,49.0,29.87,West,270,1.0,1.0,34,-99.99,,,-99.99,150.000000,,2013-08-04 15:02:00,
2013-08-04 08:22:00,83.0,48.0,29.88,NNE,26,2.0,4.0,30,-99.99,,,-99.99,290.000000,,2013-08-04 15:22:00,
2013-08-04 08:32:00,83.0,48.0,29.88,North,354,2.0,4.0,30,-99.99,,,-99.99,330.000000,,2013-08-04 15:32:00,
2013-08-04 08:42:00,84.0,47.0,29.88,North,359,2.0,4.0,28,-99.99,,,-99.99,360.000000,,2013-08-04 15:42:00,
2013-08-04 08:53:00,85.0,48.0,29.88,WNW,285,0.0,2.0,27,-99.99,,,-99.99,400.000000,,2013-08-04 15:53:00,
2013-08-04 09:12:00,88.0,46.0,29.88,NE,44,2.0,4.0,24,-99.99,,,-99.99,480.000000,,2013-08-04 16:12:00,
2013-08-04 09:22:00,88.0,46.0,29.88,NE,44,2.0,4.0,24,-99.99,,,-99.99,480.000000,,2013-08-04 16:22:00,
2013-08-04 09:32:00,88.0,44.0,29.88,North,358,3.0,5.0,22,-99.99,,,-99.99,520.000000,,2013-08-04 16:32:00,
2013-08-04 09:40:00,91.0,44.0,29.89,NNE,24,2.0,5.0,20,-99.99,,,-99.99,680.000000,,2013-08-04 16:40:00,
2013-08-04 09:42:00,88.0,44.0,29.89,North,354,4.0,6.0,22,-99.99,,,-99.99,530.000000,,2013-08-04 16:42:00,
2013-08-04 09:53:00,89.0,45.0,29.89,North,7,2.0,6.0,22,-99.99,,,-99.99,620.000000,,2013-08-04 16:53:00,
2013-08-04 10:02:00,90.0,45.0,29.88,North,5,3.0,5.0,21,-99.99,,,-99.99,660.000000,,2013-08-04 17:02:00,
2013-08-04 10:12:00,91.0,44.0,29.89,NNE,24,2.0,5.0,20,-99.99,,,-99.99,680.000000,,2013-08-04 17:12:00,
2013-08-04 10:22:00,91.0,44.0,29.89,NNE,24,2.0,5.0,20,-99.99,,,-99.99,680.000000,,2013-08-04 17:22:00,
2013-08-04 10:32:00,91.0,44.0,29.89,NNE,24,2.0,5.0,20,-99.99,,,-99.99,680.000000,,2013-08-04 17:32:00,
2013-08-04 10:53:00,94.0,44.0,29.89,NNW,344,4.0,9.0,18,-99.99,,,-99.99,790.000000,,2013-08-04 17:53:00,
2013-08-04 11:02:00,94.0,44.0,29.89,NNW,344,4.0,9.0,18,-99.99,,,-99.99,790.000000,,2013-08-04 18:02:00,
2013-08-04 11:12:00,94.0,41.0,29.89,NNW,340,4.0,8.0,16,-99.99,,,-99.99,810.000000,,2013-08-04 18:12:00,
2013-08-04 11:22:00,95.0,38.0,29.90,NE,43,6.0,10.0,14,-99.99,,,-99.99,860.000000,,2013-08-04 18:22:00,
2013-08-04 11:33:00,95.0,40.0,29.90,ENE,68,7.0,12.0,15,-99.99,,,-99.99,880.000000,,2013-08-04 18:33:00,
2013-08-04 11:42:00,95.0,38.0,29.90,ENE,65,8.0,13.0,14,-99.99,,,-99.99,900.000000,,2013-08-04 18:42:00,
2013-08-04 11:52:00,94.0,36.0,29.90,East,80,7.0,10.0,13,-99.99,,,-99.99,920.000000,,2013-08-04 18:52:00,
2013-08-04 12:02:00,94.0,36.0,29.90,East,80,7.0,10.0,13,-99.99,,,-99.99,920.000000,,2013-08-04 19:02:00,
2013-08-04 12:12:00,95.0,38.0,29.90,East,87,6.0,11.0,14,-99.99,,,-99.99,930.000000,,2013-08-04 19:12:00,
2013-08-04 12:22:00,95.0,39.0,29.90,ENE,74,4.0,8.0,14,-99.99,,,-99.99,950.000000,,2013-08-04 19:22:00,
2013-08-04 12:33:00,97.0,38.0,29.89,NNE,24,4.0,13.0,13,-99.99,,,-99.99,970.000000,,2013-08-04 19:33:00,
2013-08-04 12:43:00,97.0,36.0,29.89,NNW,333,5.0,12.0,12,-99.99,,,-99.99,980.000000,,2013-08-04 19:43:00,
2013-08-04 12:52:00,97.0,36.0,29.89,North,355,5.0,10.0,12,-99.99,,,-99.99,990.000000,,2013-08-04 19:52:00,
2013-08-04 13:02:00,98.0,36.0,29.89,North,353,5.0,12.0,12,-99.99,,,-99.99,990.000000,,2013-08-04 20:02:00,
2013-08-04 13:12:00,98.0,37.0,29.89,NNE,29,4.0,9.0,12,-99.99,,,-99.99,990.000000,,2013-08-04 20:12:00,
2013-08-04 13:22:00,98.0,37.0,29.89,North,349,5.0,11.0,12,-99.99,,,-99.99,990.000000,,2013-08-04 20:22:00,
2013-08-04 13:42:00,99.0,37.0,29.89,NNE,30,4.0,9.0,12,-99.99,,,-99.99,990.000000,,2013-08-04 20:42:00,
2013-08-04 13:53:00,99.0,38.0,29.88,North,360,7.0,12.0,12,-99.99,,,-99.99,960.000000,,2013-08-04 20:53:00,
2013-08-04 14:02:00,100.0,38.0,29.88,NE,35,3.0,10.0,12,-99.99,,,-99.99,980.000000,,2013-08-04 21:02:00,
2013-08-04 14:12:00,100.0,39.0,29.88,NNE,12,6.0,12.0,12,-99.99,,,-99.99,970.000000,,2013-08-04 21:12:00,
2013-08-04 14:22:00,100.0,38.0,29.88,North,6,7.0,12.0,12,-99.99,,,-99.99,960.000000,,2013-08-04 21:22:00,
2013-08-04 14:32:00,101.0,36.0,29.87,North,2,6.0,12.0,11,-99.99,,,-99.99,960.000000,,2013-08-04 21:32:00,
2013-08-04 14:43:00,101.0,36.0,29.87,NNW,341,6.0,13.0,11,-99.99,,,-99.99,940.000000,,2013-08-04 21:43:00,
2013-08-04 14:53:00,101.0,34.0,29.87,North,355,5.0,11.0,10,-99.99,,,-99.99,930.000000,,2013-08-04 21:53:00,
2013-08-04 15:01:00,101.0,35.0,29.86,North,1,6.0,11.0,10,-99.99,,,-99.99,920.000000,,2013-08-04 22:01:00,
2013-08-04 15:11:00,101.0,35.0,29.86,North,1,6.0,11.0,10,-99.99,,,-99.99,920.000000,,2013-08-04 22:11:00,
2013-08-04 15:22:00,101.0,35.0,29.86,North,1,6.0,11.0,10,-99.99,,,-99.99,920.000000,,2013-08-04 22:22:00,
2013-08-04 15:32:00,102.0,35.0,29.85,North,351,7.0,13.0,10,-99.99,,,-99.99,890.000000,,2013-08-04 22:32:00,
2013-08-04 15:43:00,101.0,35.0,29.85,NNW,347,5.0,12.0,10,-99.99,,,-99.99,840.000000,,2013-08-04 22:43:00,
2013-08-04 15:53:00,102.0,35.0,29.84,NNW,341,5.0,12.0,10,-99.99,,,-99.99,820.000000,,2013-08-04 22:53:00,
2013-08-04 16:02:00,102.0,35.0,29.84,North,7,6.0,11.0,10,-99.99,,,-99.99,790.000000,,2013-08-04 23:02:00,
2013-08-04 16:11:00,102.0,33.0,29.84,NNW,344,5.0,11.0,9,-99.99,,,-99.99,770.000000,,2013-08-04 23:11:00,
2013-08-04 16:22:00,103.0,33.0,29.83,North,11,5.0,10.0,9,-99.99,,,-99.99,740.000000,,2013-08-04 23:22:00,
2013-08-04 16:32:00,103.0,33.0,29.83,North,8,4.0,10.0,9,-99.99,,,-99.99,710.000000,,2013-08-04 23:32:00,
2013-08-04 16:43:00,102.0,33.0,29.82,NNE,17,5.0,9.0,9,-99.99,,,-99.99,680.000000,,2013-08-04 23:43:00,
2013-08-04 16:53:00,103.0,30.0,29.82,North,357,5.0,10.0,8,-99.99,,,-99.99,650.000000,,2013-08-04 23:53:00,
2013-08-04 17:00:00,103.0,30.0,29.82,North,355,6.0,10.0,8,-99.99,,,-99.99,520.000000,,2013-08-05 00:00:00,
2013-08-04 17:01:00,103.0,30.0,29.82,North,357,5.0,10.0,8,-99.99,,,-99.99,650.000000,,2013-08-05 00:01:00,
2013-08-04 17:12:00,103.0,30.0,29.82,North,2,7.0,11.0,8,-99.99,,,-99.99,620.000000,,2013-08-05 00:12:00,
2013-08-04 17:22:00,103.0,30.0,29.82,North,5,7.0,14.0,8,-99.99,,,-99.99,580.000000,,2013-08-05 00:22:00,
2013-08-04 17:32:00,103.0,30.0,29.82,North,355,6.0,10.0,8,-99.99,,,-99.99,520.000000,,2013-08-05 00:32:00,
2013-08-04 17:42:00,103.0,30.0,29.82,North,355,6.0,10.0,8,-99.99,,,-99.99,520.000000,,2013-08-05 00:42:00,
2013-08-04 17:52:00,103.0,30.0,29.82,North,355,6.0,10.0,8,-99.99,,,-99.99,520.000000,,2013-08-05 00:52:00,
2013-08-04 18:12:00,103.0,30.0,29.81,NNW,347,6.0,10.0,8,-99.99,,,-99.99,380.000000,,2013-08-05 01:12:00,
2013-08-04 18:22:00,102.0,30.0,29.80,North,2,6.0,11.0,8,-99.99,,,-99.99,340.000000,,2013-08-05 01:22:00,
2013-08-04 18:52:00,103.0,33.0,29.80,North,354,5.0,10.0,9,-99.99,,,-99.99,270.000000,,2013-08-05 01:52:00,
2013-08-04 19:12:00,101.0,32.0,29.80,North,3,5.0,7.0,9,-99.99,,,-99.99,60.000000,,2013-08-05 02:12:00,
2013-08-04 19:32:00,100.0,31.0,29.80,North,355,4.0,6.0,9,-99.99,,,-99.99,30.000000,,2013-08-05 02:32:00,
2013-08-04 19:43:00,99.0,33.0,29.80,NNW,339,3.0,6.0,10,-99.99,,,-99.99,20.000000,,2013-08-05 02:43:00,
2013-08-04 20:22:00,96.0,37.0,29.80,SSW,198,13.0,22.0,13,-99.99,,,-99.99,0.000000,,2013-08-05 03:22:00,
2013-08-04 20:32:00,96.0,39.0,29.80,SSW,193,11.0,25.0,14,-99.99,,,-99.99,0.000000,,2013-08-05 03:32:00,
2013-08-04 20:42:00,95.0,40.0,29.80,South,183,10.0,16.0,15,-99.99,,,-99.99,0.000000,,2013-08-05 03:42:00,
2013-08-04 20:52:00,95.0,41.0,29.80,South,176,13.0,20.0,16,-99.99,,,-99.99,0.000000,,2013-08-05 03:52:00,
2013-08-04 21:01:00,94.0,41.0,29.80,South,175,14.0,23.0,16,-99.99,,,-99.99,0.000000,,2013-08-05 04:01:00,
2013-08-04 21:12:00,94.0,41.0,29.81,South,177,14.0,23.0,16,-99.99,,,-99.99,0.000000,,2013-08-05 04:12:00,
2013-08-04 21:21:00,94.0,38.0,29.81,South,175,14.0,21.0,14,-99.99,,,-99.99,0.000000,,2013-08-05 04:21:00,
2013-08-04 21:32:00,95.0,36.0,29.81,South,175,14.0,25.0,13,-99.99,,,-99.99,0.000000,,2013-08-05 04:32:00,
2013-08-04 22:02:00,95.0,34.0,29.82,South,179,11.0,17.0,12,-99.99,,,-99.99,0.000000,,2013-08-05 05:02:00,
2013-08-04 22:22:00,92.0,40.0,29.83,NW,320,5.0,13.0,16,-99.99,,,-99.99,0.000000,,2013-08-05 05:22:00,
2013-08-04 22:32:00,93.0,38.0,29.83,SSE,168,7.0,17.0,15,-99.99,,,-99.99,0.000000,,2013-08-05 05:32:00,
2013-08-04 22:43:00,91.0,44.0,29.83,East,95,5.0,10.0,20,-99.99,,,-99.99,0.000000,,2013-08-05 05:43:00,
2013-08-04 22:53:00,90.0,45.0,29.83,East,92,4.0,7.0,21,-99.99,,,-99.99,0.000000,,2013-08-05 05:53:00,
2013-08-04 23:02:00,90.0,45.0,29.83,NW,318,5.0,9.0,21,-99.99,,,-99.99,0.000000,,2013-08-05 06:02:00,
2013-08-04 23:12:00,89.0,45.0,29.83,NE,44,5.0,9.0,22,-99.99,,,-99.99,0.000000,,2013-08-05 06:12:00,
2013-08-04 23:22:00,88.0,45.0,29.83,ENE,64,4.0,5.0,23,-99.99,,,-99.99,0.000000,,2013-08-05 06:22:00,
2013-08-04 23:32:00,87.0,46.0,29.83,NE,42,3.0,5.0,24,-99.99,,,-99.99,0.000000,,2013-08-05 06:32:00,
2013-08-04 23:42:00,87.0,46.0,29.83,NE,42,3.0,5.0,24,-99.99,,,-99.99,0.000000,,2013-08-05 06:42:00,
2013-08-04 23:52:00,86.0,47.0,29.83,NE,45,4.0,6.0,26,-99.99,,,-99.99,0.000000,,2013-08-05 06:52:00,